Regional Weather Roundup
Issued by NWS Kansas City/Pleasant Hill, MO

Home | Current Version | Previous Version | Text Only | Print | Product List | Glossary On
Versions: 1 2 3 4 5 6 7 8 9 10 11 12 13 14 15 16 17 18 19 20 21 22 23 24 25 26 27 28 29 30 31 32 33 34 35 36 37 38 39 40 41 42 43 44 45 46 47 48 49 50
000
ASUS43 KEAX 232210
RWREAX

WEATHER ROUNDUP FOR EASTERN KANSAS AND NORTHWEST MISSOURI
NATIONAL WEATHER SERVICE KANSAS CITY/PLEASANT HILL MO
500 PM CDT THU MAR 23 2017

KSZ040-057-103>105-MOZ028-029-037-043-232300-
...KANSAS CITY METROPOLITAN AREA...

CITY           SKY/WX    TMP DP  RH WIND       PRES   REMARKS
K.C. INTL      MOSUNNY   80  51  36 S25G36    29.78F
K.C. DOWNTOWN  MOSUNNY   81  51  35 S21G35    29.78F
LEES SUMMIT    SUNNY     78  51  38 S17G32    29.80F
OLATHE - IXD   SUNNY     79  53  40 S22G32    29.79F
OLATHE - OJC   SUNNY     78  53  41 S28G39    29.79F
LAWRENCE       SUNNY     81  54  39 SE26G33   29.77S

$$

MOZ001>008-011>017-020>025-030>033-038>040-044>046-053-054-232300-
...NORTHERN AND CENTRAL MISSOURI...

CITY           SKY/WX    TMP DP  RH WIND       PRES   REMARKS
ST. JOSEPH     SUNNY     81  54  39 S26G33    29.75F
MOSBY          CLEAR     79  45  29 S16G28    29.79F
WARRENSBURG    SUNNY     77  46  33 SE22G28   29.84F
WHITEMAN AFB   SUNNY     78  47  33 S23G36    29.84F
CLINTON        SUNNY     77  50  38 S18G28    29.88F
SEDALIA        SUNNY     80  47  31 S20G31    29.88F
WARSAW         NOT AVBL
CHILLICOTHE      N/A     79  50  36 S20G26    29.81F
KIRKSVILLE     SUNNY     65  38  36 SE20G29   29.89F

$$

MOZ041-047>049-056>058-063>065-088>090-097-232300-
...EASTERN AND SOUTHERN MISSOURI...

CITY           SKY/WX    TMP DP  RH WIND       PRES   REMARKS
ST. LOUIS INTL MOSUNNY   60  42  51 SE18G26   30.06F
SPIRIT OF STL  SUNNY     62  44  51 SE13G21   30.02F
COLUMBIA       SUNNY     78  52  40 S22G32    29.92F
JEFFERSON CITY SUNNY     81  50  33 S18G30    29.92F
ROLLA          SUNNY     76  51  41 S23G33    29.96F
OSAGE BEACH    SUNNY    N/A N/A N/A S14       29.94F
SPRINGFIELD    SUNNY     77  51  40 S21G30    29.93F
BRANSON        SUNNY     77  45  31 S16G22    30.00F
JOPLIN         SUNNY     77  45  32 S24G33    29.90F
WEST PLAINS    SUNNY     74  52  46 S15G25    30.06F

$$

IAZ060-094-KSZ022-034>040-054-083-096-NEZ052-066-093-232300-
...KANSAS...SOUTHEAST NEBRASKA AND IOWA...

CITY           SKY/WX    TMP DP  RH WIND       PRES   REMARKS
TOPEKA         SUNNY     79  54  41 S16G29    29.75F
MANHATTAN      CLOUDY    75  53  46 S21G30    29.72F
EMPORIA        SUNNY     77  52  41 S25G37    29.76F
CHANUTE        SUNNY     77  49  37 S28G38    29.84F
WICHITA        MOSUNNY   82  52  35 S30G40    29.72F
OMAHA          PTSUNNY   74  52  46 S22       29.67F
LINCOLN        MOSUNNY   75  53  46 S21       29.65F
FALLS CITY     SUNNY     78  52  40 S20G30    29.72F
LAMONI         SUNNY     76  49  38 S16G31    29.79F
DES MOINES     PTSUNNY   58  37  45 E9G24     29.86F

$$




USA.gov is the U.S. government's official web portal to all federal, state and local government web resources and services.